Content
SEND FEEDBACK

Daily
Averages
Monthly
Summary
Germany

LUBECK, GERMANY


Home > Europe > Germany
Elevation: 56 feet     Latitude: 54 00N     Longitude: 011 12E

WEATHER
 
SELECT A DAY
Number of Records: 58,064;   Date Range: 7/3/96 - 7/21/14
 
SHARE

PRINT THIS DATA

[ ← Previous Day ]
WEATHER ALMANAC - FEBRUARY 22, 2013
[ Next Day → ]
[ °C ]   °F
Weather ElementAverageHighLow
Temperature28.5 °F30.2 °F (12:20 pm)23 °F (7:20 am)
Dewpoint20.6 °F26.6 °F (6:20 am)17.6 °F (3:20 pm)
Humidity73.7 %100 % (6:20 am)60 % (3:20 pm)
Barometer30.18 in30.21 in (7:20 am)30.15 in (2:20 pm)
Wind Speed10 mph15 mph (2:50 pm)
Weather ElementAverage
Visibility5.9 mi
Wind DirectionENE (71.1 °)

Weather ElementTotal
Precipitation---
Heating Degree Days38.4 (Base 65)
Averaged from 28 records on February 22, 2013
WEATHER CONDITIONS BREAKOUT
WIND DIRECTION BREAKOUT
WEATHER BY HOUR - FEBRUARY 22, 2013
[ °C ]   °F
Local TimeTemperatureDewpointHumidityBarometerVisibilityWind DirectionWind SpeedGust SpeedPrecipitationEventsConditions
6:20 AM26.6 °F26.6 °F100 %30.18 in3.7 miNE (50°)3.5 mphMostly Cloudy
6:50 AM26.6 °F24.8 °F93 %30.18 in5.6 miNE (50°)3.5 mphScattered Clouds
7:20 AM23.0 °F21.2 °F93 %30.21 in5.6 miENE (60°)4.6 mphScattered Clouds
7:50 AM24.8 °F23.0 °F93 %30.21 in5.0 miEast (90°)4.6 mphMostly Cloudy
8:20 AM26.6 °F24.8 °F93 %30.21 in6.2 miEast (90°)8.1 mphMostly Cloudy
8:50 AM26.6 °F24.8 °F93 %30.21 in5.6 miEast (80°)8.1 mphScattered Clouds
9:20 AM26.6 °F23.0 °F86 %30.21 in4.3 miEast (90°)10.4 mphMostly Cloudy
9:50 AM26.6 °F23.0 °F86 %30.21 in5.6 miEast (90°)12.7 mphSnowLight Snow
10:20 AM26.6 °F21.2 °F80 %30.21 in5.6 miEast (90°)9.2 mphSnowLight Snow
10:50 AM28.4 °F21.2 °F74 %30.21 in6.2 miEast (80°)10.4 mphSnowLight Snow
11:20 AM28.4 °F21.2 °F74 %30.21 in6.2 miEast (80°)9.2 mphSnowLight Snow
11:50 AM28.4 °F21.2 °F74 %30.21 in6.2 miENE (70°)9.2 mphSnowLight Snow
12:20 PM30.2 °F21.2 °F69 %30.21 in6.2 miEast (90°)11.5 mphSnowLight Snow
12:50 PM28.4 °F21.2 °F74 %30.18 in6.2 miEast (90°)12.7 mphSnowLight Snow
1:20 PM28.4 °F21.2 °F74 %30.18 in6.2 miENE (60°)9.2 mphMostly Cloudy
1:50 PM30.2 °F21.2 °F69 %30.18 in6.2 miNE (50°)10.4 mphScattered Clouds
2:20 PM28.4 °F21.2 °F74 %30.15 in6.2 miENE (60°)11.5 mphScattered Clouds
2:50 PM30.2 °F19.4 °F64 %30.15 in6.2 miNE (50°)15.0 mphScattered Clouds
3:20 PM30.2 °F17.6 °F60 %30.15 in6.2 miENE (70°)13.8 mphMostly Cloudy
3:50 PM30.2 °F17.6 °F60 %30.15 in6.2 miENE (70°)10.4 mphScattered Clouds
4:20 PM30.2 °F17.6 °F60 %30.15 in6.2 miENE (70°)12.7 mphScattered Clouds
4:50 PM30.2 °F17.6 °F60 %30.15 in6.2 miENE (70°)12.7 mphMostly Cloudy
5:20 PM30.2 °F17.6 °F60 %30.15 in6.2 miENE (70°)13.8 mphMostly Cloudy
5:50 PM30.2 °F17.6 °F60 %30.15 in6.2 miENE (70°)11.5 mphMostly Cloudy
6:20 PM30.2 °F17.6 °F60 %30.15 in6.2 miENE (70°)11.5 mphMostly Cloudy
6:50 PM30.2 °F17.6 °F60 %30.15 in6.2 miENE (60°)9.2 mphMostly Cloudy
7:20 PM30.2 °F17.6 °F60 %30.15 in6.2 miENE (60°)12.7 mphMostly Cloudy
7:50 PM30.2 °F17.6 °F60 %30.15 in6.2 miENE (60°)9.2 mphMostly Cloudy
Hourly data recorded from EDHL, located miles away from Lubeck, Germany







STORIES FROM OUR PARTNERS